1314230425706,48.8497
1314230485706,48.9075
1314230545706,48.8594
1314230605706,48.8932
1314230665706,48.7697
1314230725706,48.8676
1314230785706,48.8380
1314230845706,48.9325
1314230905706,48.9688
1314230965706,49.0378
1314231025706,48.9296
1314231085706,48.9314
1314231145706,48.9771
1314231205706,48.8258
1314231265706,49.0584
1314231325706,48.9604
1314231385706,48.9871
1314231445706,48.8747
1314231505706,48.9382
1314231565706,48.9795
1314231625706,49.1247
1314231685706,48.9880
1314231745706,49.0863
1314231805706,48.8216
1314231865706,48.8554
1314231925706,48.8648
1314231985706,48.9588
1314232045706,49.0324
1314232105706,48.8945
1314232165706,49.0451
1314232225706,48.9889
1314232285706,48.9946
1314232345706,49.1348
1314232405706,48.8735
1314232465706,49.0840
1314232525706,49.0454
1314232585706,49.0016
1314232645706,49.0980
1314232705706,49.0929
1314232765706,48.9023
1314232825706,49.0409
1314232885706,49.0186
1314232945706,48.9159
1314233005706,49.0941
1314233065706,49.1631
1314233125706,49.0790
1314233185706,48.9955
1314233245706,48.9317
1314233305706,48.9738
1314233365706,49.0172
1314233425706,49.3188
1314233485706,48.9827
1314233545706,48.9751
1314233605706,49.0160
1314233665706,48.9757
1314233725706,49.2725
1314233785706,48.9714
1314233845706,48.9904
1314233905706,48.8876
1314233965706,49.1496
1314234025716,48.9545
1314234085716,48.9890
1314234145716,49.1408
1314234205716,48.9594
1314234265716,48.9841
1314234325716,48.9375
1314234385716,48.8940
1314234445716,48.9515
1314234505716,48.8529
1314234565716,48.8660
1314234625716,48.8030
1314234685716,49.0951
1314234745716,48.9310
1314234805716,48.9399
1314234865716,48.7679
1314234925716,48.7808
1314234985716,48.8471
1314235045716,48.7719
1314235105716,48.8748
1314235165716,48.7887
1314235225716,48.8907
1314235285716,48.7928
1314235345716,48.7315
1314235405716,48.8339
1314235465716,48.9007
1314235525716,48.8669
1314235585716,48.7739
1314235645716,48.7569
1314235705716,48.8040
1314235765716,48.8297
1314235825716,48.8713
1314235885716,48.8538
1314235945716,48.8233
1314236005716,48.7735
1314236065716,48.6969
1314236125716,48.8324
1314236185716,48.8170
1314236245716,48.7830
1314236305716,48.7214
1314236365716,48.8512
1314236425716,48.7190
1314236485716,48.8385
1314236545716,48.9096
1314236605716,48.7977
1314236665716,48.7941
1314236725716,48.8034
1314236785716,48.9022
1314236845716,48.8358
1314236905716,48.8300
1314236965716,48.8560
1314237025716,48.7607
1314237085716,48.8119
1314237145716,48.7159
1314237205716,48.7606
1314237265716,48.8012
1314237325716,48.9811
1314237385716,48.7256
1314237445716,48.7670
1314237505716,48.7375
1314237565716,48.7710
1314237625725,48.8991
1314237685725,48.8533
1314237745725,48.8026
1314237805725,48.7426
1314237865725,48.9566
1314237925725,48.8120
1314237985725,48.6655
1314238045725,48.7573
1314238105725,48.7487
1314238165725,48.8819
1314238225725,48.6756
1314238285725,48.8399
1314238345725,48.7332
1314238405725,48.7420
1314238465725,48.7329
1314238525725,48.6516
1314238585725,48.6444
1314238645725,48.8228
1314238705725,49.0074
1314238765725,48.7400
1314238825725,48.8598
1314238885725,48.7578
1314238945725,48.7938
1314239005725,48.7030
1314239065725,48.8058
1314239125725,48.8291
1314239185725,48.8515
1314239245725,48.8121
1314239305725,48.8194
1314239365725,48.7645
1314239425725,48.9198
1314239485725,48.7799
1314239545725,48.7251
1314239605725,48.8859
1314239665725,48.9494
1314239725725,48.9819
1314239785725,48.9554
1314239845725,48.9937
1314239905725,48.8805
1314239965725,48.8624
1314240025725,48.9557
1314240085725,48.9377
1314240145725,48.9799
1314240205725,48.8912
1314240265725,48.9347
1314240325725,48.9556
1314240385725,48.9866
1314240445725,48.9714
1314240505725,48.8777
1314240565725,48.8380
1314240625725,48.8721
1314240685725,48.7847
1314240745725,48.8935
1314240805725,48.6658
1314240865725,48.7108
1314240925725,48.7124
1314240985725,48.8232
1314241045725,48.8280
1314241105725,48.7255
1314241165725,48.7561
1314241225735,48.8378
1314241285735,48.7295
1314241345735,48.7052
1314241405735,48.8291
1314241465735,48.8254
1314241525735,48.8249
1314241585735,48.7577
1314241645735,48.8449
1314241705735,48.8320
1314241765735,48.8432
1314241825735,48.8004
1314241885735,48.7443
1314241945735,48.8624
1314242005735,48.6799
1314242065735,48.5437
1314242125735,48.8172
1314242185735,48.8615
1314242245735,48.8127
1314242305735,48.7821
1314242365735,48.7431
1314242425735,48.8329
1314242485735,48.8029
1314242545735,48.8111
1314242605735,48.7613
1314242665735,48.8816
1314242725735,48.7556
1314242785735,48.8386
1314242845735,48.7819
1314242905735,48.6243
1314242965735,48.8166
1314243025735,48.7681
1314243085735,48.7703
1314243145735,48.7010
1314243205735,48.8159
1314243265735,48.6599
1314243325735,48.7434
1314243385735,48.6935
1314243445735,48.7741
1314243505735,48.7257
1314243565735,48.7168
1314243625735,48.7159
1314243685735,48.7091
1314243745735,48.9597
1314243805735,48.7337
1314243865735,48.7634
1314243925735,48.6600
1314243985735,48.7221
1314244045735,48.7053
1314244105735,48.7138
1314244165735,48.8794
1314244225735,48.8206
1314244285735,48.8185
1314244345735,48.7851
1314244405735,48.7234
1314244465735,48.7801
1314244525735,48.8053
1314244585735,48.7043
1314244645735,48.7500
1314244705735,48.6960
1314244765735,48.8744
1314244825744,48.7836
1314244885744,48.7357
1314244945744,48.8979
1314245005744,48.7503
1314245065744,48.7803
1314245125744,48.8177
1314245185744,48.7699
1314245245744,48.7007
1314245305744,48.9191
1314245365744,48.7970
1314245425744,48.7275
1314245485744,48.8594
1314245545744,48.8314
1314245605744,48.8688
1314245665744,48.6913
1314245725744,48.6787
1314245785744,48.8635
1314245845744,48.8193
1314245905744,48.8228
1314245965744,48.8849
1314246025744,48.7509
1314246085744,48.9141
1314246145744,48.9391
1314246205744,48.9415
1314246265744,49.0395
1314246325744,48.7907
1314246385744,48.8993
1314246445744,48.6837
1314246505744,48.8829
1314246565744,48.8300
1314246625744,48.7868
1314246685744,48.8786
1314246745744,49.0064
1314246805744,49.0522
1314246865744,48.8883
1314246925744,48.8629
1314246985744,48.8829
1314247045744,49.0619
1314247105744,48.7615
1314247165744,49.0564
1314247225744,48.7241
1314247285744,48.9555
1314247345744,48.8234
1314247405744,48.8328
1314247465744,48.8591
1314247525744,48.9519
1314247585744,48.9424
1314247645744,48.7037
1314247705744,48.7865
1314247765744,48.7306
1314247825744,48.8993
1314247885744,48.8533
1314247945744,48.8051
1314248005744,48.9727
1314248065744,48.9470
1314248125744,48.7165
1314248185744,48.9135
1314248245744,48.8585
1314248305744,48.9909
1314248365744,48.9246
1314248425753,48.9988
1314248485753,48.9132
1314248545753,48.9406
1314248605753,49.0392
1314248665753,49.0194
1314248725753,48.8284
1314248785753,49.0352
1314248845753,49.0728
1314248905753,48.9977
1314248965753,48.8917
1314249025753,49.0039
1314249085753,49.0226
1314249145753,48.9379
1314249205753,48.9756
1314249265753,49.0111
1314249325753,49.0225
1314249385753,48.8733
1314249445753,48.8994
1314249505753,48.7516
1314249565753,48.9921
1314249625753,48.9416
1314249685753,48.9676
1314249745753,48.9745
1314249805753,49.0076
1314249865753,49.0011
1314249925753,49.0587
1314249985753,49.0972
1314250045753,48.9403
1314250105753,49.0911
1314250165753,48.9124
1314250225753,48.9022
1314250285753,49.0094
1314250345753,49.0334
1314250405753,48.9005
1314250465753,48.9692
1314250525753,49.0752
1314250585753,49.0686
1314250645753,49.0473
1314250705753,48.9985
1314250765753,48.9205
1314250825753,48.9924
1314250885753,49.0689
1314250945753,49.0098
1314251005753,48.8694
1314251065753,48.9724
1314251125753,48.9950
1314251185753,48.9675
1314251245753,48.9822
1314251305753,48.8049
1314251365753,48.8913
1314251425753,49.0042
1314251485753,48.9846
1314251545753,49.0329
1314251605753,48.9295
1314251665753,48.8478
1314251725753,48.9058
1314251785753,49.0445
1314251845753,48.9205
1314251905753,48.8932
1314251965753,48.9410
1314252025762,49.0034
1314252085762,48.9011
1314252145762,49.0332
1314252205762,48.9203
1314252265762,48.9689
1314252325762,48.8382
1314252385762,48.8741
1314252445762,48.9459
1314252505762,48.8694
1314252565762,48.8663
1314252625762,49.0364
1314252685762,48.9778
1314252745762,48.9394
1314252805762,48.7844
1314252865762,48.8252
1314252925762,48.8209
1314252985762,48.8238
1314253045762,48.9228
1314253105762,48.8120
1314253165762,48.9249
1314253225762,48.9430
1314253285762,48.6754
1314253345762,48.7377
1314253405762,48.9890
1314253465762,48.8998
1314253525762,48.7495
1314253585762,48.7949
1314253645762,48.9035
1314253705762,48.8853
1314253765762,48.7727
1314253825762,48.8468
1314253885762,48.9216
1314253945762,48.8350
1314254005762,48.8716
1314254065762,48.8982
1314254125762,48.8911
1314254185762,48.8390
1314254245762,48.8340
1314254305762,48.7535
1314254365762,48.9669
1314254425762,48.9292
1314254485762,48.7643
1314254545762,48.8465
1314254605762,48.9147
1314254665762,48.8616
1314254725762,48.7445
1314254785762,48.9731
1314254845762,48.8486
1314254905762,48.8768
1314254965762,48.7656
1314255025762,48.8752
1314255085762,48.8893
1314255145762,49.1092
1314255205762,48.8663
1314255265762,48.9228
1314255325762,48.7757
1314255385762,48.9508
1314255445762,48.9910
1314255505762,48.8077
1314255565762,48.9699
1314255625771,48.9698
1314255685771,48.8541
1314255745771,48.8401
1314255805771,48.9506
1314255865771,48.9192
1314255925771,48.9930
1314255985771,48.9636
1314256045771,48.8134
1314256105771,48.9048
1314256165771,48.8558
1314256225771,48.9758
1314256285771,48.9365
1314256345771,49.1112
1314256405771,49.0534
1314256465771,49.0569
1314256525771,49.0186
1314256585771,48.9170
1314256645771,49.1668
1314256705771,49.0474
1314256765771,49.0189
1314256825771,49.0234
1314256885771,48.9402
1314256945771,48.9529
1314257005771,48.8870
1314257065771,49.0419
1314257125771,48.9550
1314257185771,48.9347
1314257245771,48.8762
1314257305771,48.9637
1314257365771,48.8869
1314257425771,49.0252
1314257485771,49.0196
1314257545771,48.9995
1314257605771,48.9198
1314257665771,49.0883
1314257725771,48.9751
1314257785771,49.0255
1314257845771,49.0736
1314257905771,49.3192
1314257965771,48.9699
1314258025771,49.0498
1314258085771,49.0643
1314258145771,49.3066
1314258205771,49.0905
1314258265771,49.1015
1314258325771,49.1065
1314258385771,49.2078
1314258445771,49.0910
1314258505771,49.0932
1314258565771,49.1061
1314258625771,49.0382
1314258685771,49.2403
1314258745771,49.1595
1314258805771,49.2173
1314258865771,49.2754
1314258925771,49.2172
1314258985771,49.1984
1314259045771,49.3081
1314259105771,49.2139
1314259165771,49.1333
1314259225781,49.2637
1314259285781,49.2994
1314259345781,49.2498
1314259405781,49.2098
1314259465781,49.2802
1314259525781,49.3067
1314259585781,49.3760
1314259645781,49.4035
1314259705781,49.3577
1314259765781,49.2627
1314259825781,49.3862
1314259885781,49.4183
1314259945781,49.3696
1314260005781,49.4178
1314260065781,49.3650
1314260125781,49.4262
1314260185781,49.4247
1314260245781,49.4815
1314260305781,49.3090
1314260365781,49.1649
1314260425781,49.2676
1314260485781,49.2728
1314260545781,49.4370
1314260605781,49.3037
1314260665781,49.3470
1314260725781,49.2303
1314260785781,49.2504
1314260845781,49.1913
1314260905781,49.1384
1314260965781,49.1193
1314261025781,49.1867
1314261085781,49.0195
1314261145781,49.2735
1314261205781,49.2008
1314261265781,49.1239
1314261325781,48.9561
1314261385781,49.1097
1314261445781,48.9826
1314261505781,49.0437
1314261565781,48.9564
1314261625781,49.0359
1314261685781,48.9788
1314261745781,49.1203
1314261805781,48.9719
1314261865781,48.9716
1314261925781,49.0107
1314261985781,49.1877
1314262045781,49.0125
1314262105781,49.0571
1314262165781,49.0540
1314262225781,48.8670
1314262285781,49.1453
1314262345781,49.1315
1314262405781,48.9564
1314262465781,48.9693
1314262525781,48.9599
1314262585781,49.0273
1314262645781,49.1415
1314262705781,48.8948
1314262765781,49.1559
1314262825790,49.1612
1314262885790,49.0825
1314262945790,49.0828
1314263005790,49.0393
1314263065790,48.8171
1314263125790,49.0074
1314263185790,49.1482
1314263245790,49.0222
1314263305790,49.0455
1314263365790,48.9026
1314263425790,49.0576
1314263485790,48.6569
1314264025790,48.7920
1314264085790,46.1298
1314264145790,48.9940
1314264205790,48.8782
1314264265790,48.9357
1314264325790,48.8899
1314264385790,48.9222
1314264445790,48.8638
1314264505790,48.9151
1314264565790,48.8311
1314264625790,48.9255
1314264685790,48.9295
1314264745790,48.8415
1314264805790,48.8262
1314264865790,48.8656
1314264925790,48.9259
1314264985790,48.8839
1314265045790,49.0289
1314265105790,48.9436
1314265165790,48.9072
1314265225790,48.8694
1314265285790,49.0602
1314265345790,48.8842
1314265405790,48.9641
1314265465790,48.9630
1314265525790,48.9257
1314265585790,49.0069
1314265645790,48.9795
1314265705790,49.1349
1314265765790,49.0578
1314265825790,48.9205
1314265885790,48.8781
1314265945790,48.8425
1314266005790,48.9454
1314266065790,48.9821
1314266125790,48.9322
1314266185790,48.9729
1314266245790,48.9051
1314266305790,48.9233
1314266365790,49.0261
1314266425800,48.9627
1314266485800,48.9022
1314266545800,48.8556
1314266605800,48.9077
1314266665800,48.8347
1314266725800,48.9394
1314266785800,49.0019
1314266845800,48.9233
1314266905800,48.8344
1314266965800,48.8172
1314267025800,48.7705
1314267085800,48.8590
1314267145800,48.7456
1314267205800,48.7801
1314267265800,48.9323
1314267325800,48.9442
1314267385800,48.7659
1314267445800,48.6312
1314267505800,48.6310
1314267565800,48.7967
1314267625800,48.7735
1314267685800,48.6106
1314267745800,48.7611
1314267805800,48.6569
1314267865800,48.7422
1314267925800,48.8076
1314267985800,48.6958
1314268045800,48.6403
1314268105800,48.8489
1314268165800,48.6837
1314268225800,48.7485
1314268285800,48.7989
1314268345800,48.7361
1314268405800,48.6515
1314268465800,48.7918
1314268525800,48.6724
1314268585800,48.5906
1314268645800,48.6208
1314268705800,48.5854
1314268765800,48.7129
1314268825800,48.5601
1314268885800,48.7675
1314268945800,48.5235
1314269005800,48.5778
1314269065800,48.6285
1314269125800,48.6982
1314269185800,48.5410
1314269245800,48.6985
1314269305800,48.7996
1314269365800,48.7006
1314269425800,48.6117
1314269485800,48.6814
1314269545800,48.5010
1314269605800,48.4451
1314269665800,48.5674
1314269725800,48.6095
1314269785800,48.7678
1314269845800,48.6473
1314269905800,48.6631
1314269965800,48.6392
1314270025810,48.7035
1314270085810,48.7652
1314270145810,48.6837
1314270205810,48.7389
1314270265810,48.6480
1314270325810,48.7391
1314270385810,48.6338
1314270445810,48.6464
1314270505810,48.7872
1314270565810,48.7601
1314270625810,48.6047
1314270685810,48.8633
1314270745810,48.6081
1314270805810,48.7429
1314270865810,48.6091
1314270925810,48.6225
1314270985810,48.5326
1314271045810,48.8370
1314271105810,48.8402
1314271165810,48.7529
1314271225810,48.7074
1314271285810,48.7230
1314271345810,48.6651
1314271405810,48.8647
1314271465810,48.6858
1314271525810,48.7845
1314271585810,48.6438
1314271645810,48.6218
1314271705810,48.7267
1314271765810,48.8337
1314271825810,48.7505
1314271885810,48.6877
1314271945810,48.6198
1314272005810,48.5711
1314272065810,48.5104
1314272125810,48.8211
1314272185810,48.6898
1314272245810,48.6873
1314272305810,48.5807
1314272365810,48.6525
1314272425810,48.7774
1314272485810,48.7138
1314272545810,48.8118
1314272605810,48.6953
1314272665810,48.8580
1314272725810,48.7234
1314272785810,48.7487
1314272845810,48.8236
1314272905810,48.6536
1314272965810,48.7606
1314273025810,48.7474
1314273085810,48.7738
1314273145810,48.8344
1314273205810,48.9066
1314273265810,48.7171
1314273325810,48.7482
1314273385810,48.7317
1314273445810,48.7264
1314273505810,48.7675
1314273565810,48.6854
1314273625820,48.7216
1314273685820,48.8182
1314273745820,48.8554
1314273805820,48.7913
1314273865820,48.8182
1314273925820,48.8443
1314273985820,48.7074
1314274045820,48.7168
1314274105820,48.6706
1314274165820,48.7889
1314274225820,48.7103
1314274285820,48.5908
1314274345820,48.6630
1314274405820,48.7963
1314274465820,48.7804
1314274525820,48.8130
1314274585820,48.6341
1314274645820,48.8387
1314274705820,48.7180
1314274765820,48.6595
1314274825820,48.8540
1314274885820,48.8706
1314274945820,48.6802
1314275005820,48.7992
1314275065820,48.9115
1314275125820,48.7422
1314275185820,48.8855
1314275245820,48.7741
1314275305820,48.8337
1314275365820,48.7321
1314275425820,48.8983
1314275485820,48.9888
1314275545820,48.8615
1314275605820,48.8850
1314275665820,48.7859
1314275725820,48.8408
1314275785820,48.8687
1314275845820,48.7428
1314275905820,48.9066
1314275965820,48.9261
1314276025820,49.2143
1314276085820,48.6592
1314276145820,48.9823
1314276205820,48.8600
1314276265820,48.8323
1314276325820,48.9374
1314276385820,48.8594
1314276445820,48.8817
1314276505820,48.8639
1314276565820,48.9782
1314276625820,48.8754
1314276685820,49.0298
1314276745820,49.0279
1314276805820,49.0733
1314276865820,48.8182
1314276925820,48.9621
1314276985820,49.0365
1314277045820,48.9040
1314277105820,49.0405
1314277165820,48.9759
1314277225836,49.0241
1314277285836,49.0632
1314277345836,48.9493
1314277405836,48.8261
1314277465836,48.9562
1314277525836,48.8179
1314277585836,49.0163
1314277645836,48.9949
1314277705836,49.0582
1314277765836,48.9090
1314277825836,48.8728
1314277885836,48.9982
1314277945836,48.7384
1314278005836,48.9834
1314278065836,48.8824
1314278125836,49.1126
1314278185836,49.0058
1314278245836,48.9950
1314278305836,48.8474
1314278365836,49.0651
1314278425836,48.9809
1314278485836,48.9352
1314278545836,49.0198
1314278605836,49.0032
1314278665836,49.1321
1314278725836,49.0602
1314278785836,48.9187
1314278845836,49.1300
1314278905836,49.0519
1314278965836,48.9637
1314279025836,48.9965
1314279085836,49.1878
1314279145836,49.0452
1314279205836,49.3039
1314279265836,49.2670
1314279325836,49.1299
1314279385836,49.0931
1314279445836,49.2470
1314279505836,49.2424
1314279565836,49.0457
1314279625836,49.0925
1314279685836,49.1867
1314279745836,49.1458
1314279805836,49.1745
1314279865836,49.2370
1314279925836,49.2711
1314279985836,49.1812
1314280045836,49.3432
1314280105836,49.2435
1314280165836,49.2747
1314280225836,49.2517
1314280285836,49.2101
1314280345836,49.3509
1314280405836,49.3543
1314280465836,49.2916
1314280525836,49.1350
1314280585836,49.2099
1314280645836,49.2399
1314280705836,49.1509
1314280765836,49.3515
1314280825847,49.2540
1314280885847,49.1345
1314280945847,49.2562
1314281005847,49.1444
1314281065847,49.1067
1314281125847,49.3279
1314281185847,49.2021
1314281245847,49.2349
1314281305847,49.2068
1314281365847,49.1566
1314281425847,49.2580
1314281485847,49.2952
1314281545847,49.2798
1314281605847,49.2062
1314281665847,49.1812
1314281725847,49.1515
1314281785847,49.3413
1314281845847,49.2083
1314281905847,49.2588
1314281965847,49.3002
1314282025847,49.3279
1314282085847,49.4179
1314282145847,49.3096
1314282205847,49.3347
1314282265847,49.2682
1314282325847,49.4305
1314282385847,49.4387
1314282445847,49.5037
1314282505847,49.4759
1314282565847,49.3459
1314282625847,49.4118
1314282685847,49.3112
1314282745847,49.4968
1314282805847,49.5572
1314282865847,49.3377
1314282925847,49.3210
1314282985847,49.4864
1314283045847,49.4910
1314283105847,49.3370
1314283165847,49.4363
1314283225847,49.4391
1314283285847,49.4772
1314283345847,49.4524
1314283405847,49.4676
1314283465847,49.4533
1314283525847,49.4714
1314283585847,49.3711
1314283645847,49.3876
1314283705847,49.4503
1314283765847,49.4204
1314283825847,49.3793
1314283885847,49.4192
1314283945847,49.3848
1314284005847,49.4967
1314284065847,49.3696
1314284125847,49.3477
1314284185847,49.3965
1314284245847,49.4640
1314284305847,49.5335
1314284365847,49.4746
1314284425858,49.5154
1314284485858,49.5899
1314284545858,49.5204
1314284605858,49.5774
1314284665858,49.6085
1314284725858,49.5354
1314284785858,49.6066
1314284845858,49.7625
1314284905858,49.6010
1314284965858,49.6211
1314285025858,49.6995
1314285085858,49.6110
1314285145858,49.6175
1314285205858,49.6934
1314285265858,49.6236
1314285325858,49.6870
1314285385858,49.4337
1314285445858,49.7141
1314285505858,49.5509
1314285565858,49.6668
1314285625858,49.4971
1314285685858,49.5871
1314285745858,49.5070
1314285805858,49.5891
1314285865858,49.5043
1314285925858,49.6261
1314285985858,49.4198
1314286045858,49.5357
1314286105858,49.4798
1314286165858,49.3479
1314286225858,49.4604
1314286285858,49.4336
1314286345858,49.4623
1314286405858,49.4206
1314286465858,49.3868
1314286525858,49.2678
1314286585858,49.3660
1314286645858,49.4906
1314286705858,49.4067
1314286765858,49.3057
1314286825858,49.3564
1314286885858,49.4285
1314286945858,49.2416
1314287005858,49.3876
1314287065858,49.3551
1314287125858,49.2324
1314287185858,49.3852
1314287245858,49.2580
1314287305858,49.2163
1314287365858,49.2383
1314287425858,49.3084
1314287485858,49.2439
1314287545858,49.2063
1314287605858,49.1462
1314287665858,49.0973
1314287725858,49.0878
1314287785858,49.1529
1314287845858,49.1806
1314287905858,49.1145
1314287965858,49.1255
1314288025868,49.0878
1314288085868,49.1821
1314288145868,49.0937
1314288205868,49.0639
1314288265868,49.0894
1314288325868,49.1015
1314288385868,49.0033
1314288445868,48.9505
1314288505868,48.9710
1314288565868,49.1231
1314288625868,49.0791
1314288685868,49.0788
1314288745868,49.1706
1314288805868,48.9587
1314288865868,49.0539
1314288925868,49.0333
1314288985868,49.1474
1314289045868,48.8959
1314289105868,49.0510
1314289165868,48.9344
1314289225868,48.9593
1314289285868,48.9281
1314289345868,48.9848
1314289405868,48.8294
1314289465868,48.7808
1314289525868,48.8212
1314289585868,49.0312
1314289645868,48.9292
1314289705868,48.9553
1314289765868,48.8135
1314289825868,49.0458
1314289885868,49.0630
1314289945868,48.9596
1314290005868,49.0584
1314290065868,49.0528
1314290125868,48.9420
1314290185868,49.0143
1314290245868,49.0211
1314290305868,49.0973
1314290365868,48.9191
1314290425868,49.0389
1314290485868,48.9916
1314290545868,49.0689
1314290605868,48.9444
1314290665868,48.9898
1314290725868,48.9329
1314290785868,48.9254
1314290845868,48.9152
1314290905868,48.9244
1314290965868,48.9359
1314291025868,48.9171
1314291085868,48.8484
1314291145868,48.9841
1314291205868,49.0859
1314291265868,49.0361
1314291325868,48.9482
1314291385868,49.0644
1314291445868,49.0226
1314291505868,48.9920
1314291565868,49.0054
1314291625879,49.0260
1314291685879,48.8896
1314291745879,48.8700
1314291805880,48.9516
1314291865880,48.9650
1314291925880,49.0981
1314291985879,49.1127
1314292045879,49.0978
1314292105879,48.9583
1314292165879,49.0942
1314292225879,48.9354
1314292285879,49.0456
1314292345879,48.9537
1314292405879,49.0788
1314292465879,49.0703
1314292525879,49.0249
1314292585879,49.0375
1314292645879,49.0097
1314292705879,48.9985
1314292765879,49.0476
1314292825879,49.1871
1314292885879,48.9475
1314292945879,49.0284
1314293005879,49.0817
1314293065879,49.0326
1314293125879,49.1153
1314293185880,49.1842
1314293245880,49.1537
1314293305879,49.0905
1314293365879,49.0278
1314293425879,49.1253
1314293485879,49.1915
1314293545879,49.1164
1314293605879,49.0393
1314293665879,48.9280
1314293725879,49.0200
1314293785879,49.1516
1314293845879,49.0272
1314293905879,49.0855
1314293965879,48.9794
1314294025879,49.0927
1314294085879,49.0490
1314294145879,49.1799
1314294205879,49.0711
1314294265879,48.9532
1314294325879,48.9536
1314294385879,48.8926
1314294445879,49.0031
1314294505880,48.9740
1314294565880,49.1395
1314294625880,49.0051
1314294685879,49.0711
1314294745879,49.1184
1314294805879,49.0352
1314294865879,49.1777
1314294925879,49.0413
1314294985879,48.9563
1314295045879,49.0448
1314295105879,48.9223
1314295165879,49.1879
1314295225891,49.1820
1314295285891,49.2180
1314295345891,49.2156
1314295405891,49.2152
1314295465891,49.2739
1314295525891,49.2338
1314295585891,49.2158
1314295645891,49.0823
1314295705891,49.1629
1314295765891,49.2327
1314295825891,49.2193
1314295885891,49.2418
1314295945891,49.1326
1314296005891,49.1371
1314296065891,49.1127
1314296125891,49.1425
1314296185891,49.1698
1314296245891,49.0690